Regional Weather Roundup
Issued by NWS Newport/Morehead, NC

Current Version | Previous Version | Text Only | Print | Product List | Glossary On
Versions: 1 2 3 4 5 6 7 8 9 10 11 12 13 14 15 16 17 18 19 20 21 22 23 24 25 26 27 28 29 30 31 32 33 34 35 36 37 38 39 40 41 42 43 44 45 46 47 48 49 50
000
ASUS42 KMHX 041125
RWRMHX
WEATHER ROUNDUP FOR EASTERN NORTH CAROLINA
NATIONAL WEATHER SERVICE NEWPORT/MOREHEAD CITY NC
700 AM EDT FRI SEP 04 2015

NOTE: "FAIR" INDICATES FEW OR NO CLOUDS BELOW 12,000 FEET
WITH NO SIGNIFICANT WEATHER AND/OR OBSTRUCTIONS TO VISIBILITY

NCZ015>017-031-032-045>047-102-103-041200-
NORTH COAST

CITY           SKY/WX    TMP DP  RH WIND       PRES   REMARKS
EDENTON        CLEAR     71  69  93 CALM      29.94R FOG
ELIZABETH CITY CLEAR     71  70  96 W6        29.92R FOG
KITTY HAWK     SUNNY     77  75  95 CALM      29.91R
MANTEO         CLEAR     73  72  98 CALM      29.92R

$$

NCZ045>047-081-094-103-104-041200-
CENTRAL COAST

CITY           SKY/WX    TMP DP  RH WIND       PRES   REMARKS
FRISCO         CLEAR     78  72  81 N3        29.91R
SWANQUARTER      N/A     73 N/A N/A NW1       29.88S

$$

NCZ095-097-098-100-101-041200-
SOUTHERN COAST

CITY           SKY/WX    TMP DP  RH WIND       PRES   REMARKS
BEAUFORT       CLEAR     73  73 100 CALM      29.93R
CEDAR ISLAND     N/A     79 N/A N/A NW6       29.97S
JACKSONVILLE   PTCLDY    70  69  97 CALM      29.93R FOG
PINEY ISLAND   SUNNY    N/A N/A N/A NW3       29.92R
WILMINGTON     CLEAR     71  69  93 CALM      29.93R


$$

NCZ011>013-027>030-043-044-078>080-089-090>093-098-041200-
COASTAL PLAIN

CITY           SKY/WX    TMP DP  RH WIND       PRES   REMARKS
AHOSKIE          N/A     68  67  98 CALM      29.95R FOG
CLINTON        CLEAR     69  69 100 CALM      29.95R FOG
ELIZABETHTOWN  CLEAR     71  71 100 CALM      29.95R FOG
GOLDSBORO      CLEAR     70  70  99 CALM      29.93R
GREENVILLE       N/A     70  70 100 CALM      29.96R FOG
HAVELOCK       CLEAR     73  71  93 NW3       29.94R
KENANSVILLE      N/A     68  67  98 CALM      29.95R FOG
KINSTON        CLEAR     70  68  94 CALM      29.94S FOG
NEW BERN       CLEAR     70  68  93 CALM      29.94R
RICHLANDS      CLEAR     68  63  83 CALM      29.95R
ROCKY MOUNT    FOG       70  69  97 CALM      29.95R VSB 1
WASHINGTON     PTCLDY    69  68  97 CALM      29.94R FOG
WHITEVILLE     CLEAR     68  67  95 CALM      29.93R

$$

AMZ130-135-150-152-154-156-158-170-250-252-270-ANZ085-086-088-633-658-670-041200-
MARINE OBSERVATIONS

STATION/POSITION TIME  TEMP    WIND        PRES    WAVE   SWELL
                       AIR SEA DIR/SP/G            HT/PER HT/PER
                 (UTC) (F)     (DEG/KT/KT) (MB)    (FT/S) (FT/S)
CHESAPEAKE LIGHT 1100   78     340/  8/  8 1013.8
64 E VA BEACH    1050   79 79  320/  4/  6 1012.5    1/12   2/12
DUCK             1100   78 80  310/  4/  6 1012.3
2 E DUCK         1011      80                N/A     1/12
OREGON INLET     1100   78 82  310/  2/  4 1012.9
13E OREGON INLT  1100      81                N/A     1/11
HATTERAS CG      1100   80 83  330/  7/  8 1012.7
DIAMOND BUOY     1050   81 85  340/  6/  8 1013.0    1/12   2/12
CAPE LOOKOUT     1100   78     340/  4/  5 1013.1
BEAUFORT LAB     1100   77 82  340/  3/  3 1012.9
30 SE NEW RVR IN 1008   80 81  350/  6/  8 1013.1
30 SE NEW RVR IN 1025      81                N/A     1/13
27 SE WRIGHTSVLE 1100   76 82  350/  8/ 10   N/A
5 SE WRIGHTSVLE  1008   78 82  320/  8/ 10 1013.2
225 S CAPE HAT   1050   83 84  320/  2/  4 1012.8    2/ 5   2/ 5
41 SE CHARLESTON 1050   82 83  310/  8/ 10 1012.8    1/ 7   2/ 7

$$



USA.gov is the U.S. government's official web portal to all federal, state and local government web resources and services.